SCP
0 0 0 0 0 0 -0 0 0 0 0 -0 -0 -0 -0 -0 0 0 0 0 0 0 0 -0 0 0 0 0 0 0 0 0 0 -0 -0 -0 -0 -0 -0 -0 0 0 0 0 0 -0 0 0 0
0 0 0 0 0 0 -0 0 0 0 0 -0 -0 -0 -0 -0 0 0 0 0 0 0 0 0 0 0 0 0 0 0 0 0 0 0 -0 -0 -0 -0 -0 -0 -0 0 0 0 0 0 0 0 0
0 0 0 0 0 0 -0 0 0 0 0 -0 -0 -0 0 0 0 0 0 0 0 0 0 0 0 0 0 0 0 0 0 0 0 0 0 -0 -0 -0 -0 -0 -0 -0 0 0 0 0 0 -0 -0
0 0 0 0 0 0 -0 0 0 0 0 0 0 0 0 0 0 0 0 0 0 0 0 0 0 0 0 0 0 0 0 0 0 0 0 -0 -0 -0 -0 -0 -0 -0 0 0 0 0 -0 -0 -0
0 0 0 0 0 0 0 0 0 0 0 0 0 0 0 0 0 0 0 0 0 0 0 0 0 0 0 0 0 0 0 0 0 0 0 -0 -0 -0 -0 -0 -0 -0 0 0 0 0 0 -0 -0
0 0 0 0 0 0 0 0 0 0 0 0 0 0 0 0 0 0 0 0 0 0 0 0 0 0 0 0 0 0 0 0 0 0 -0 -0 -0 -0 -0 -0 -0 -0 0 0 0 0 0 -0 -0
0 0 0 0 0 0 0 0 0 0 0 0 0 0 0 0 0 0 0 0 0 0 0 0 0 0 0 0 0 0 0 0 0 0 -0 -0 -0 -0 -0 -0 -0 0 0 0 0 0 0 0 0
0 0 0 0 0 0 0 0 0 0 0 0 0 0 0 0 0 0 0 0 0 0 0 0 0 0 0 0 0 0 0 0 0 0 0 0 0 0 0 0 0 0 0 0 0 0 0 0 0
0 0 0 0 0 0 0 0 0 0 0 0 0 0 0 0 0 0 0 0 0 0 0 0 0 0 0 0 0 0 0 0 0 0 0 0 0 0 0 0 0 0 0 0 0 0 0 0 0
0 0 0 0 0 0 0 0 0 0 0 0 0 0 0 0 0 0 0 0 0 0 0 0 0 0 0 0 0 0 0 0 0 0 0 0 0 0 0 0 0 0 0 0 0 0 0 0 0
0 0 0 0 0 0 0 0 0 0 0 0 0 0 0 0 0 0 0 0 0 0 0 0 0 0 0 0 0 0 0 0 0 0 0 0 0 0 0 0 0 0 0 0 0 0 0 0 0
0 0 0 0 0 0 0 0 0 0 0 0 0 0 0 0 0 0 0 0 0 0 0 0 0 0 0 0 0 0 0 0 0 0 0 0 0 0 0 0 0 0 0 0 0 0 0 0 0
0 0 0 0 0 0 0 0 0 0 0 0 0 0 0 0 0 0 0 0 0 0 0 0 0 0 0 0 0 0 0 0 0 0 0 0 0 0 0 0 0 0 0 0 0 0 0 0 0
0 0 0 0 0 0 0 0 0 0 0 0 0 0 0 0 0 0 0 0 0 0 0 0 0 0 0 0 0 0 0 0 0 0 0 0 0 0 0 0 0 0 0 0 0 0 0 0 0
0 0 0 0 0 0 0 0 0 0 0 0 0 0 0 0 0 0 0 0 0 0 0 0 0 0 0 0 0 0 0 0 0 0 0 0 0 0 0 0 0 0 0 0 0 0 0 0 -0
0 0 0 0 0 0 0 0 0 0 0 0 0 0 0 0 0 0 0 0 0 0 0 0 0 0 0 0 0 0 0 0 0 0 0 0 0 0 0 0 0 0 0 0 0 0 0 0 -0
0 0 0 0 0 0 0 0 0 0 0 0 0 0 0 0 0 0 0 0 0 0 0 0 0 0 0 0 0 0 0 0 0 0 0 0 0 0 0 0 0 0 0 0 0 0 0 0 0
0 0 0 0 0 0 0 0 0 0 0 0 0 0 0 0 0 0 0 0 0 0 0 0 0 0 0 0 0 0 0 0 0 0 0 0 0 0 0 0 0 0 0 0 0 0 0 0 0
0 0 0 0 0 0 0 0 0 0 0 0 0 0 0 0 0 0 0 0 0 0 0 0 0 0 0 0 0 0 0 0 0 0 0 0 0 0 0 0 0 0 0 0 0 0 0 0 0
0 0 0 0 0 0 0 0 0 0 0 0 0 0 0 0 0 0 0 0 0 0 0 0 0 0 0 0 0 0 0 0 0 0 0 0 0 0 0 0 0 0 0 0 0 0 0 0 0
0 0 0 0 0 0 0 0 0 0 0 0 0 0 0 0 0 0 0 0 0 0 0 0 0 0 0 0 0 0 0 0 0 0 0 0 0 0 0 0 0 0 0 0 0 0 0 0 0
0 0 0 0 0 0 0 0 0 0 0 0 0 0 0 0 0 0 0 0 0 0 0 0 0 0 0 0 0 0 0 0 0 0 0 0 0 0 0 0 0 0 0 0 0 0 0 0 0
0 0 0 0 0 0 0 0 0 0 0 0 0 0 0 0 0 0 0 0 0 0 0 0 0 0 0 0 0 0 0 0 0 0 0 0 0 0 0 0 0 0 0 0 0 0 0 0 0
0 0 0 0 0 0 -0 0 0 0 0 0 0 0 0 0 0 0 0 0 0 0 0 0 0 0 0 0 0 0 0 0 0 0 0 0 0 0 0 0 0 0 0 0 0 0 0 0 0
0 0 0 0 0 0 0 0 0 0 0 0 0 0 0 0 0 0 0 0 0 0 0 0 0 0 0 0 0 0 0 0 0 0 0 0 0 0 0 0 0 0 0 0 0 0 0 0 0
0 0 0 0 0 0 0 0 0 0 0 0 0 0 0 0 0 0 0 0 0 0 0 1 1 1 0 0 0 0 0 0 0 0 0 0 0 0 0 0 0 0 0 0 0 0 0 0 0
0 0 0 0 0 0 0 0 0 0 0 0 0 0 0 0 0 0 0 0 0 0 0 0 1 1 1 1 0 0 0 0 0 0 0 0 0 0 0 0 0 0 0 0 0 0 0 0 0
0 0 0 0 0 0 0 0 0 0 0 0 0 0 0 0 0 0 0 0 0 0 0 0 1 1 1 1 1 0 0 0 0 0 0 0 0 0 0 0 0 0 0 0 0 0 0 0 0
0 0 0 0 0 0 0 0 0 0 0 0 0 0 0 0 0 0 0 0 0 0 0 0 1 1 1 1 1 0 0 0 0 0 0 0 0 0 0 0 0 0 0 0 0 0 0 0 0
0 0 0 0 0 0 0 0 0 0 0 0 0 0 0 0 0 0 0 0 0 0 0 1 1 1 1 1 1 0 0 0 0 0 0 0 0 0 0 0 0 0 0 0 0 0 0 0 0
Wind_Speed
9 6 3 1 2 3 2 2 5 6 5 6 8 9 8 5 4 5 3 8 9 7 6 9 10 11 12 12 12 12 12 12 12 12 13 13 12 13 13 13 13 13 13 12 12 11 11 11 11
6 5 1 2 3 2 1 3 7 7 8 9 9 9 8 6 5 7 4 8 9 7 6 8 11 12 12 12 12 12 12 12 12 12 12 13 13 13 13 13 13 13 13 12 11 11 11 11 11
6 3 1 2 2 2 2 4 8 9 9 7 6 6 5 5 6 5 7 10 8 7 6 8 13 13 13 12 11 11 11 12 12 12 12 13 12 12 13 13 13 13 13 12 11 11 10 11 11
2 2 2 3 2 1 4 5 9 9 9 8 7 6 5 4 4 8 11 11 9 6 6 8 13 14 13 12 11 11 11 11 12 12 12 12 12 12 12 12 12 12 12 11 11 10 10 10 10
2 3 3 3 2 2 5 8 10 10 6 8 9 7 5 4 10 12 11 11 10 7 5 7 13 13 13 12 11 11 10 11 11 11 11 11 11 11 12 11 11 11 11 10 10 10 9 9 9
2 3 3 3 4 4 5 9 11 13 11 9 9 7 3 4 10 11 11 10 9 8 6 7 12 13 12 12 12 11 11 11 11 11 11 11 11 11 10 10 10 11 10 10 9 9 8 8 8
2 2 1 3 4 6 5 6 9 10 9 6 6 6 3 4 7 9 9 9 8 7 6 5 5 8 11 11 11 10 11 11 11 11 10 10 10 9 9 9 9 10 9 9 9 8 7 7 6
3 2 1 2 5 5 4 5 7 10 8 8 6 7 5 6 7 8 7 6 7 6 6 5 4 4 5 6 9 10 10 11 11 10 10 9 9 8 8 7 8 9 9 8 8 7 7 6 5
2 4 1 2 4 5 6 9 6 7 10 7 5 7 9 10 9 8 7 5 5 5 4 4 5 4 4 4 7 7 8 8 9 8 9 8 3 3 4 6 8 8 8 8 7 6 6 4 4
4 3 4 4 5 7 9 11 7 8 10 9 9 9 11 10 9 8 7 7 6 6 5 4 5 5 4 4 3 2 3 3 3 3 4 3 2 2 4 5 7 7 7 6 6 5 4 2 2
5 5 3 3 6 8 8 7 6 10 7 10 13 13 11 10 8 7 7 7 6 6 6 5 5 5 4 3 3 2 1 1 2 3 3 3 2 2 2 1 2 3 4 2 2 2 1 1 1
4 3 4 3 5 7 8 7 7 7 8 11 13 13 10 9 8 8 7 6 6 5 4 4 5 5 4 3 3 3 2 2 2 3 4 3 2 2 2 1 1 1 1 2 1 1 1 1 1
4 2 2 4 7 8 10 9 8 8 10 12 12 11 10 9 7 7 7 6 6 5 4 4 4 5 4 3 3 4 3 3 3 3 3 3 3 3 3 2 1 1 2 2 2 2 2 1 1
2 3 3 5 8 9 12 8 6 8 11 12 11 9 9 8 8 7 7 6 5 5 4 4 5 4 4 3 2 3 3 3 3 2 3 4 3 3 3 3 2 2 2 2 2 2 2 1 1
4 5 4 4 6 7 10 6 6 10 11 11 11 10 8 6 8 8 7 7 6 5 5 5 5 4 4 3 3 3 3 3 3 2 3 3 3 3 3 3 2 2 2 2 2 2 2 1 1
4 5 2 2 3 4 8 4 6 9 11 10 9 10 8 6 7 7 8 7 6 6 5 4 5 5 3 3 2 2 3 3 2 2 2 3 4 4 3 3 2 2 2 2 2 2 2 1 1
4 2 1 1 2 3 6 4 6 8 11 10 9 9 8 7 7 7 8 8 7 6 6 5 4 4 3 2 2 3 3 3 2 2 2 3 3 4 3 2 2 2 2 2 2 2 2 2 1
2 2 2 3 3 4 4 4 7 7 9 9 8 8 8 8 8 8 8 8 7 6 6 5 4 3 3 2 3 3 2 2 2 2 2 3 3 4 4 3 2 2 2 1 2 2 1 2 2
4 3 2 3 4 4 4 5 7 8 7 8 8 8 8 8 7 8 8 8 7 6 6 5 4 3 3 2 2 2 1 1 1 1 3 3 3 4 4 3 2 2 2 2 2 2 2 1 2
3 2 1 2 3 4 3 3 5 7 9 10 10 9 9 8 7 8 7 7 7 7 6 5 5 4 3 2 2 2 2 2 2 1 2 3 3 3 4 3 2 2 3 3 2 2 2 1 2
3 5 6 4 1 2 5 2 2 3 4 6 8 8 8 11 11 10 9 8 8 7 7 6 5 4 3 3 2 2 3 2 2 1 1 1 3 3 3 3 3 2 3 3 3 3 4 2 0
3 7 7 7 3 1 3 1 4 4 5 7 8 8 9 10 10 10 10 9 9 8 7 6 5 4 3 3 3 3 3 2 2 1 1 1 2 2 3 3 3 3 2 3 3 3 3 3 1
4 3 4 5 4 1 1 3 6 3 6 9 10 11 11 11 11 11 11 10 9 9 8 6 5 4 3 3 4 4 3 2 2 2 2 2 1 1 2 3 3 3 2 2 2 2 2 2 2
4 5 4 5 4 1 3 3 5 6 11 10 9 10 10 9 11 10 9 9 8 8 7 7 6 4 4 4 4 4 4 3 3 3 2 1 1 1 1 2 2 2 2 2 2 2 2 2 2
5 6 4 4 4 4 3 1 8 9 10 12 13 13 12 10 9 8 9 10 10 9 9 8 7 5 4 4 4 4 4 4 4 3 3 2 1 1 1 1 2 2 2 2 2 2 1 2 2
3 9 8 4 4 4 3 3 7 6 7 9 10 11 12 11 10 10 10 10 11 11 10 9 8 6 5 5 4 3 4 3 2 3 3 3 2 2 2 2 2 2 2 2 2 2 1 2 2
2 3 8 8 3 1 3 4 6 3 4 7 8 9 11 12 11 10 9 10 10 11 11 11 10 7 6 6 5 4 3 3 3 3 2 2 2 2 2 2 2 2 1 2 2 2 1 1 1
5 4 6 6 5 1 3 3 4 2 4 6 8 9 9 11 10 10 9 10 9 10 9 10 9 9 7 6 5 5 3 3 3 3 2 2 2 2 2 2 2 2 2 2 2 1 1 2 1
1 3 5 4 6 6 2 6 5 7 7 8 9 8 8 10 11 10 9 9 9 8 9 9 9 8 7 6 5 5 4 3 3 2 2 2 2 2 3 2 2 2 2 2 2 2 2 2 1
4 4 6 4 2 4 5 7 4 5 6 8 9 8 8 8 9 10 10 8 8 8 9 10 9 9 8 7 6 5 4 4 4 3 2 2 3 2 3 2 2 2 1 2 2 2 2 2 1
Wind_Direction
165 165 171 143 44 48 63 84 103 81 61 67 77 84 85 72 102 130 150 136 131 134 143 136 130 122 119 116 114 110 109 108 108 108 109 111 110 111 115 119 121 121 118 117 117 118 118 121 124
159 172 178 47 67 64 40 106 94 91 111 103 80 80 80 75 89 112 125 140 134 132 137 135 131 126 122 119 115 113 111 111 112 112 111 113 112 112 116 119 122 122 121 120 118 120 118 121 125
173 173 96 56 63 129 121 108 106 99 97 93 86 66 71 97 106 126 146 142 131 130 134 139 135 130 126 122 118 117 115 116 116 116 114 114 113 112 115 118 121 123 123 124 123 119 122 125 127
151 82 45 63 85 117 119 119 115 105 81 75 92 71 61 93 117 132 137 137 130 131 138 143 138 133 130 127 124 120 119 121 122 120 119 119 118 117 117 119 124 127 129 128 127 124 121 124 128
70 74 51 54 77 87 101 112 110 98 91 90 94 94 75 69 114 130 137 138 135 137 145 145 139 137 135 132 127 126 125 126 127 126 124 124 123 122 121 121 125 130 131 132 131 128 126 125 129
60 69 68 80 89 84 93 107 103 98 106 106 102 103 90 116 124 137 140 140 142 144 148 145 144 141 139 139 137 135 135 136 135 133 130 130 129 128 127 128 128 131 131 134 135 132 130 130 133
104 86 120 132 106 99 102 110 109 114 110 107 115 99 106 119 132 138 135 136 141 144 144 147 149 145 145 146 145 143 142 143 143 142 140 139 137 135 135 135 134 136 140 142 144 143 140 138 140
164 100 71 111 113 115 114 92 112 119 111 119 112 120 149 157 135 127 125 124 133 143 148 151 144 143 150 152 152 150 147 147 149 150 148 147 147 146 145 145 145 146 147 150 153 153 152 149 150
144 81 139 171 144 143 123 99 96 97 110 108 101 124 146 142 129 121 117 117 132 143 153 154 151 153 155 156 160 156 155 155 156 157 157 156 151 151 153 158 159 159 160 161 163 162 156 157 154
140 132 202 185 151 139 129 120 122 103 104 105 106 116 130 134 133 128 131 137 144 153 161 161 158 163 162 163 151 152 159 155 152 150 156 148 151 162 166 166 171 170 169 171 170 166 160 154 132
151 164 179 146 135 127 123 120 108 112 117 138 139 141 140 136 136 136 139 142 149 155 156 159 159 158 160 153 148 148 153 149 148 148 151 141 140 147 149 149 166 170 170 160 145 151 149 139 136
123 148 138 142 130 119 125 124 107 117 145 146 140 142 139 137 142 145 144 146 141 141 150 157 156 152 156 145 153 159 159 153 153 154 153 149 145 148 152 153 154 156 150 149 141 141 154 157 156
100 121 129 127 111 109 107 114 115 123 135 136 134 134 136 141 142 145 145 141 129 130 137 142 140 146 147 144 159 152 157 155 155 148 154 155 152 158 160 157 153 157 153 161 162 155 156 165 168
146 113 91 105 101 107 110 116 113 138 139 137 136 136 141 147 144 136 134 132 132 134 134 138 136 138 134 138 142 148 156 149 148 154 154 149 150 157 156 154 154 161 168 168 161 159 158 160 152
96 82 48 93 100 120 105 91 135 145 140 138 140 139 140 147 140 137 144 144 144 140 134 133 131 123 120 124 141 149 155 150 152 158 158 153 152 157 153 154 157 166 157 156 145 142 136 137 146
58 62 45 303 113 133 104 138 170 149 139 139 144 147 148 149 145 143 143 139 138 132 129 137 127 117 118 122 118 121 135 142 149 155 158 163 162 152 143 147 161 159 145 142 138 136 120 126 135
41 94 179 261 212 140 109 157 183 159 147 148 152 153 152 149 149 149 145 142 140 137 131 125 117 123 128 125 110 110 118 129 142 145 149 160 160 152 140 145 149 138 126 125 144 133 141 141 137
224 172 202 200 222 122 120 168 171 169 159 160 159 157 158 158 165 159 149 144 139 137 131 125 122 122 115 104 92 90 92 108 120 133 145 145 147 146 140 141 142 124 112 110 126 135 141 148 147
186 163 191 194 181 132 155 160 178 175 166 167 167 164 167 168 167 158 152 146 138 135 129 128 126 120 109 101 103 107 119 129 130 148 149 144 140 140 137 139 136 135 139 154 152 137 130 117 117
180 155 174 158 161 130 153 170 192 179 183 177 173 173 172 163 158 160 155 150 146 148 145 138 138 136 131 134 136 134 134 140 145 140 134 143 142 144 143 143 145 142 137 138 141 136 125 123 124
208 184 187 174 110 91 110 23 247 207 173 174 178 175 174 169 167 167 161 159 154 155 156 152 150 145 144 133 105 86 75 65 73 88 116 155 151 147 143 142 140 138 141 154 160 151 143 154 245
228 214 183 158 123 257 135 170 254 208 192 190 184 181 178 174 169 170 167 165 166 167 161 151 153 149 145 135 124 122 126 137 168 162 153 132 135 140 142 143 143 142 142 149 169 163 151 146 164
199 192 154 150 141 104 54 125 265 180 202 207 194 190 184 178 174 176 174 173 171 166 160 155 152 151 148 144 142 135 130 138 123 111 112 106 100 127 136 143 146 144 141 150 164 149 146 152 160
141 81 50 56 67 37 238 153 254 208 206 204 196 187 182 179 179 179 174 167 166 164 159 155 153 158 157 147 139 141 140 133 118 114 119 116 105 87 108 130 141 143 142 151 165 160 150 158 153
101 95 45 13 16 263 267 173 244 229 198 188 185 183 178 172 175 176 174 171 169 167 166 163 161 164 167 154 147 147 145 141 140 143 146 140 123 110 122 135 139 141 151 155 154 151 152 152 150
190 138 150 179 208 271 320 249 262 249 185 176 175 172 167 168 178 177 179 176 173 171 169 166 168 170 171 165 161 153 145 145 147 151 151 155 161 171 158 133 139 144 149 147 139 138 155 143 148
158 173 163 134 136 113 278 280 311 21 138 158 162 162 169 173 177 179 178 176 174 171 172 173 173 173 175 174 163 155 155 150 149 149 140 149 159 161 144 133 134 127 125 122 124 128 152 135 135
143 152 88 106 135 175 283 274 238 222 191 170 166 173 179 177 176 181 182 179 179 177 173 172 174 176 175 173 169 164 168 162 149 138 141 145 152 145 137 129 125 120 111 102 106 112 114 109 103
43 71 96 116 147 148 198 266 232 194 184 173 175 176 174 175 176 180 187 183 175 171 171 172 171 169 171 173 172 167 164 159 151 144 158 156 147 139 139 144 142 130 119 115 113 124 121 112 98
159 160 134 141 214 157 159 259 265 178 168 169 173 169 162 163 172 178 179 173 168 170 175 175 173 174 177 176 170 169 166 160 162 167 167 157 151 144 140 138 135 137 130 126 128 138 124 122 118